Theta_e
303 315 320 322 323 324 326 327 326 326 326 323 321 319 317 320 320 319 320 321 321 322 324 323 322 321 319 318 315 310 306 302 299 297 295 296 296 295 293 293 292 294 294
302 305 315 320 322 322 325 325 326 326 326 325 323 322 318 319 321 320 319 321 321 321 324 323 322 321 319 318 315 310 304 302 301 296 295 292 293 294 295 293 292 291 292
301 301 312 315 321 321 322 324 325 325 326 326 324 322 320 320 319 318 317 319 322 322 321 323 323 321 320 317 316 311 307 300 300 300 298 293 292 292 294 293 292 291 290
296 297 304 315 318 321 323 324 325 325 326 326 324 322 319 318 321 320 320 319 321 322 322 323 323 321 320 318 317 313 309 303 300 299 301 300 297 292 290 292 292 292 291
293 294 296 308 318 320 321 322 323 324 325 325 325 323 321 321 321 322 319 319 318 321 322 322 321 321 321 320 318 314 310 306 303 302 298 298 298 298 294 290 290 292 292
296 296 297 297 302 319 321 322 321 323 324 325 325 323 322 321 320 320 320 320 319 319 321 322 321 321 321 320 319 316 311 307 305 303 300 300 298 298 296 294 292 291 292
297 298 299 301 299 300 318 321 321 321 322 323 324 323 323 322 321 320 321 321 320 319 319 321 321 320 321 321 320 318 313 309 306 304 303 303 302 300 301 297 293 291 292
295 297 299 302 304 305 308 319 321 321 322 322 322 323 323 323 323 323 322 322 322 321 321 320 322 322 321 321 321 318 316 313 310 307 304 304 303 302 300 300 296 292 291
294 296 297 297 299 301 303 306 316 321 322 322 322 322 323 322 322 323 323 322 323 322 321 320 320 322 322 321 321 319 317 315 312 310 306 305 305 304 303 303 301 299 293
292 294 296 295 297 299 302 304 311 322 322 323 323 323 323 323 323 324 323 322 322 321 320 320 319 321 322 321 321 320 319 316 314 312 310 306 307 305 304 304 304 303 301
290 291 293 295 295 298 301 303 306 314 318 322 322 323 322 323 323 324 325 324 323 321 320 319 320 320 320 320 320 320 319 317 315 313 311 310 308 307 304 304 304 303 302
289 289 290 292 292 294 298 299 301 302 306 311 321 324 324 324 324 324 325 326 325 325 323 321 319 319 320 320 319 318 318 317 315 314 312 310 310 307 308 305 303 304 303
287 287 287 288 289 291 294 295 297 299 300 303 305 304 305 307 318 323 324 324 324 324 324 322 320 319 319 319 319 319 318 317 317 315 313 312 311 309 307 306 305 304 303
285 285 285 286 287 290 291 292 292 295 297 297 297 298 298 300 302 304 306 308 313 319 320 322 321 320 319 319 318 318 317 317 316 315 314 313 312 310 309 306 304 304 302
284 284 284 285 285 287 290 290 290 291 292 292 293 293 295 296 297 298 299 300 301 303 305 306 311 317 318 317 317 316 316 315 314 314 314 313 310 303 308 308 305 304 302
284 284 284 284 284 285 286 288 288 288 290 289 289 290 291 292 292 293 295 296 296 297 299 299 299 299 302 296 296 297 304 308 309 309 309 307 296 298 298 300 303 303 301
284 284 284 283 284 284 285 285 286 287 287 287 287 287 288 288 289 290 291 291 292 293 293 294 294 294 296 295 294 293 295 296 298 297 296 295 293 291 294 294 294 295 296
283 284 283 283 283 284 285 285 285 285 285 285 285 285 286 286 286 287 287 288 289 289 289 290 291 291 293 293 292 292 292 292 292 292 292 292 293 291 290 291 291 292 292
283 284 284 283 282 282 284 283 283 283 283 282 283 284 285 285 285 285 286 286 287 287 287 287 288 288 289 291 291 291 289 288 289 289 289 289 289 291 291 288 288 287 287
283 283 283 282 281 281 282 282 281 281 280 281 282 283 284 284 284 285 285 286 286 286 287 287 287 287 287 290 291 291 288 287 288 288 287 287 288 290 291 289 287 287 286
282 282 281 280 279 280 281 280 280 279 280 281 282 283 283 284 284 285 285 286 286 286 286 286 286 287 287 287 290 291 288 287 287 287 287 285 289 290 291 292 286 287 286
280 281 279 279 278 278 279 279 277 278 278 279 281 281 281 283 283 285 285 285 285 284 283 283 284 285 285 287 288 289 290 290 287 287 286 286 289 290 291 290 289 290 286
279 279 277 276 276 275 276 276 275 276 276 279 279 280 280 282 282 284 284 284 284 283 282 281 281 282 283 284 286 288 289 289 287 286 287 289 289 289 290 291 290 286 284
275 274 276 273 271 271 273 272 273 273 273 275 277 279 279 280 282 282 284 283 282 281 281 281 279 280 281 282 285 287 287 287 287 286 286 287 287 288 286 286 287 285 285
272 272 277 269 268 268 268 268 270 271 273 275 277 277 278 280 281 282 282 282 283 282 279 280 279 278 279 281 284 287 287 288 287 285 285 284 284 283 283 282 283 283 283
270 268 272 267 265 264 265 266 267 268 269 275 275 277 278 280 280 280 280 283 283 282 282 282 280 280 281 282 283 285 285 285 288 285 284 283 283 282 281 281 281 282 282
Wind_Speed
7 10 12 14 13 11 15 16 14 12 9 5 8 7 5 5 6 7 10 10 8 7 8 7 9 8 9 8 7 4 8 2 4 4 2 1 3 4 4 4 4 5 5
6 4 9 11 13 15 18 15 15 15 12 8 6 6 5 3 6 6 6 9 9 7 8 10 10 10 8 10 9 6 4 3 8 4 3 3 3 4 5 4 5 7 5
8 6 7 7 12 12 13 16 17 16 14 14 6 4 4 3 4 5 6 8 11 12 8 11 11 11 10 10 10 9 12 4 7 7 5 3 5 2 2 6 5 6 4
7 8 5 6 7 11 12 16 16 15 15 16 13 12 11 11 9 8 7 9 11 13 11 12 13 12 10 11 11 9 10 6 9 1 7 3 4 4 2 3 5 5 7
9 10 10 8 10 10 10 11 15 16 16 16 16 13 12 10 9 7 9 10 10 12 13 13 13 14 10 12 13 12 12 10 8 9 3 2 3 3 3 3 4 3 5
10 10 10 11 3 9 12 12 14 17 17 17 18 18 19 13 10 10 10 9 9 9 11 13 12 12 13 13 12 12 14 12 9 9 5 5 6 6 4 3 3 4 5
14 13 11 11 10 6 10 13 16 18 18 18 18 18 18 17 17 13 11 12 9 9 12 12 13 11 12 14 12 13 13 14 13 13 11 8 8 3 6 3 3 4 4
16 15 16 10 11 12 10 9 15 17 17 19 19 18 17 11 12 13 11 11 11 12 15 13 14 15 14 14 15 12 12 14 14 15 13 10 10 7 5 7 6 2 4
17 15 15 14 13 12 14 11 13 18 19 20 18 17 16 16 15 16 12 11 12 11 13 15 15 16 16 17 17 13 14 14 14 16 13 13 11 10 10 9 8 10 8
16 16 14 14 13 12 10 15 14 17 18 19 17 15 16 16 14 12 13 14 13 14 13 15 16 16 17 17 17 15 16 15 13 13 16 15 13 11 10 11 11 11 12
15 15 14 15 14 13 11 12 11 2 6 12 13 13 13 15 13 13 11 11 8 12 13 15 17 17 17 17 16 18 17 17 16 15 16 17 16 12 10 11 11 11 11
13 12 14 15 16 14 12 9 11 11 9 6 3 11 12 13 13 14 14 12 15 12 11 13 14 16 17 16 17 19 17 19 18 18 17 18 13 16 16 11 14 13 13
16 15 18 16 15 15 12 9 12 13 13 12 11 11 11 13 5 9 11 9 12 13 12 13 15 15 15 16 17 19 19 20 20 19 19 19 18 17 13 14 14 13 11
16 16 18 18 15 14 11 12 14 13 13 14 13 13 12 11 11 11 12 10 9 4 6 10 13 13 15 16 17 17 17 17 18 19 19 19 19 19 18 16 17 15 14
16 15 15 13 14 13 12 13 15 15 13 14 13 12 10 10 11 13 13 13 13 12 11 12 10 8 10 10 14 17 17 18 17 17 18 18 19 21 22 14 16 17 15
14 15 15 16 14 16 15 14 15 15 12 13 13 10 12 12 12 12 11 10 12 12 11 11 11 11 9 16 15 10 5 6 8 10 10 10 9 13 18 23 27 20 18
12 12 13 13 14 16 15 14 13 12 12 12 11 10 9 10 11 10 11 10 11 9 10 10 10 10 10 17 17 16 6 5 5 6 6 6 5 7 7 7 9 9 13
10 12 11 11 11 11 11 10 10 11 10 11 10 12 10 9 9 9 10 9 8 10 9 9 8 8 8 15 17 16 10 8 8 5 6 8 9 6 7 7 8 8 9
5 6 7 8 9 10 11 10 10 9 10 12 13 12 11 11 10 11 11 9 9 8 8 7 9 9 9 16 18 14 8 8 10 7 6 5 8 8 10 6 7 5 5
3 4 5 6 8 11 9 9 11 11 13 12 11 9 10 11 11 11 10 9 7 8 8 10 9 9 10 16 19 15 7 8 7 6 5 7 10 10 11 9 7 8 6
3 3 4 6 7 9 9 9 9 12 10 9 8 8 9 9 8 8 7 8 9 8 10 10 10 10 10 10 17 17 8 7 8 6 5 2 11 14 14 16 7 6 7
1 4 4 5 7 9 8 8 10 10 9 9 8 9 10 8 7 8 8 9 9 9 9 10 8 8 11 16 19 23 19 17 8 7 4 5 12 13 14 11 7 7 10
2 2 4 4 6 6 7 7 8 8 8 7 8 9 8 8 8 8 9 8 9 9 8 9 9 10 10 10 22 22 20 15 10 4 7 14 14 14 9 10 10 11 6
2 1 3 3 2 4 4 3 6 7 6 5 7 7 9 8 9 8 8 8 8 9 9 9 10 9 10 11 13 12 8 9 7 6 5 8 8 4 3 3 6 4 5
3 3 4 1 3 4 4 5 6 6 5 4 5 6 5 6 6 6 6 6 7 10 8 8 8 9 11 13 21 18 11 7 6 5 2 3 3 3 3 4 4 4 5
3 2 2 2 2 3 4 6 6 6 5 6 6 6 7 8 7 7 6 11 13 16 20 20 15 7 17 23 24 21 22 24 16 4 3 3 2 3 2 3 3 3 5
Wind_Direction
228 216 208 197 184 170 173 187 181 186 167 158 178 170 170 171 177 179 177 181 186 185 170 159 159 162 168 177 172 152 159 131 134 101 53 345 237 209 211 191 181 183 180
297 168 210 194 185 179 184 180 190 188 186 179 180 185 157 173 176 183 181 185 183 174 185 168 170 171 169 177 181 162 148 132 177 138 121 201 284 252 216 206 195 197 189
292 298 191 213 191 183 187 185 188 187 191 184 173 134 129 116 171 187 188 191 189 198 181 176 174 179 179 185 190 182 176 157 200 185 153 147 219 150 195 223 207 194 198
280 287 158 197 212 211 191 190 185 187 194 187 187 186 187 196 201 195 192 195 196 200 192 183 178 183 187 186 194 182 189 152 189 224 240 237 147 178 206 242 221 199 206
317 294 291 197 206 212 205 199 195 189 190 193 194 203 200 195 194 190 183 194 196 203 204 197 186 186 190 190 193 187 193 194 180 198 160 174 229 212 139 203 224 219 206
347 347 344 335 258 233 203 200 184 194 192 190 197 201 213 198 195 186 193 198 200 198 202 202 201 197 195 192 195 196 199 198 203 203 206 188 173 196 180 176 191 204 213
355 346 344 345 333 327 251 208 194 193 193 194 197 201 203 210 202 198 199 191 195 203 205 200 203 205 204 197 195 205 203 202 206 204 212 216 218 174 192 169 174 195 203
343 340 337 348 346 346 347 274 213 196 193 196 200 203 210 207 212 210 206 200 201 204 207 199 206 209 205 208 204 202 211 208 213 218 216 215 222 205 185 200 173 201 215
331 334 344 339 337 336 323 308 265 215 196 195 199 199 204 209 209 209 214 202 197 206 202 208 211 215 210 207 209 212 212 212 215 219 215 218 220 217 215 214 203 210 220
326 334 339 337 331 324 322 319 277 216 206 198 196 201 204 207 211 212 210 210 205 204 203 207 211 212 214 214 214 217 217 210 214 221 220 219 224 217 215 216 216 214 227
333 331 337 342 334 325 339 329 355 321 232 203 195 198 202 210 216 219 209 206 209 213 213 213 211 211 213 215 218 225 225 221 221 220 223 225 224 224 221 217 219 223 221
339 345 349 347 340 333 332 357 23 30 24 9 215 200 200 206 209 213 221 211 216 214 213 215 216 216 215 217 219 223 225 227 225 224 221 228 227 225 227 221 223 222 219
357 5 1 353 342 337 337 12 38 37 32 40 58 48 38 30 304 236 227 207 216 214 214 213 218 216 220 221 220 224 229 226 227 225 225 226 224 228 223 221 223 224 222
0 9 4 357 346 341 342 18 38 37 40 46 45 48 38 35 31 21 14 20 357 321 249 222 215 218 221 221 222 224 231 233 234 231 229 227 226 225 224 222 220 222 223
2 6 3 349 348 348 6 21 35 35 33 42 47 35 36 38 40 30 27 18 31 16 11 10 356 299 230 226 225 223 228 232 234 231 232 232 231 228 223 219 220 224 227
358 357 360 356 357 4 6 16 29 31 25 33 33 16 30 33 38 36 27 13 28 26 10 16 10 12 354 358 355 13 332 291 267 259 256 253 245 236 232 226 227 215 218
358 360 357 355 357 354 0 8 22 24 22 26 24 19 26 32 34 30 38 7 22 15 20 21 1 359 352 354 349 345 327 313 291 281 272 268 255 256 253 249 243 256 243
1 0 354 347 353 351 4 1 15 27 18 25 21 23 16 23 25 27 28 11 18 12 13 2 359 354 347 356 339 343 324 320 296 276 274 278 273 238 236 254 255 236 214
351 339 344 349 341 351 357 10 22 23 20 16 17 10 15 19 24 26 21 15 16 18 9 356 358 356 350 352 345 347 319 331 300 299 285 275 270 265 240 234 238 229 223
344 338 347 343 1 350 347 17 18 18 16 6 357 3 14 24 20 20 17 12 16 10 9 3 357 346 343 352 344 344 327 312 300 279 292 265 267 264 231 230 217 221 203
9 6 9 20 356 343 346 19 16 19 348 337 345 4 19 17 19 13 15 13 15 16 15 9 359 351 348 339 340 340 334 314 310 307 309 287 284 281 250 231 211 222 147
89 19 41 29 3 358 359 18 23 343 333 337 1 12 17 16 5 21 15 18 17 25 14 10 356 356 352 350 347 339 330 328 316 299 301 290 293 288 267 249 203 200 147
126 70 53 19 9 357 5 12 345 340 339 349 11 20 18 13 7 13 23 25 22 20 10 10 360 352 349 347 341 333 328 323 328 293 301 315 317 305 280 247 175 151 148
171 55 51 37 352 335 355 333 321 324 331 351 9 11 25 19 25 23 22 28 21 16 11 5 1 350 347 347 343 337 329 321 330 330 325 331 340 348 70 91 135 142 152
172 158 151 152 307 336 333 336 342 345 359 4 16 14 23 23 21 20 18 31 34 36 14 11 357 345 350 346 347 350 359 352 351 334 329 346 356 16 52 57 69 83 108
170 169 173 169 313 340 356 351 345 353 345 30 15 18 23 27 25 27 19 22 35 38 30 28 24 4 5 359 357 3 17 9 353 338 349 350 5 17 50 91 93 93 112